Wind_Speed
13 13 13 13 13 12 12 12 13 14 15 16 17 18 19 20 21 22 22 22 22 22 23 23 23 22 21 21 21 21 21 21 21 21 21 22 22 23 23 23 23 24 24
15 15 14 14 14 14 14 14 15 16 18 18 19 20 21 23 24 25 25 25 25 25 25 26 26 26 25 25 24 24 24 24 24 24 25 25 25 26 26 26 26 27 27
16 15 15 16 16 16 17 17 18 19 21 21 22 23 24 25 26 26 26 26 27 27 28 28 29 28 29 28 28 28 28 28 28 28 28 28 28 29 29 29 30 30 30
17 17 17 17 18 19 20 21 21 22 22 23 25 26 26 26 26 26 26 27 28 28 28 29 29 30 31 32 32 31 31 31 32 32 32 32 33 33 33 33 34 34 34
18 18 19 20 20 21 22 24 23 23 24 25 26 26 26 27 27 28 29 28 28 28 29 30 31 31 32 33 34 34 34 34 35 35 35 36 36 37 37 37 38 38 39
19 20 21 22 23 23 24 25 25 25 26 26 26 26 26 26 27 28 28 27 27 27 28 30 32 32 32 34 35 36 36 36 37 38 38 39 40 41 41 42 42 43 43
22 22 23 23 23 24 24 25 25 26 27 28 27 27 27 27 27 27 27 27 28 29 30 31 33 34 34 34 36 38 39 40 41 42 42 43 44 45 45 46 46 47 48
24 24 24 24 24 24 24 24 25 26 27 27 27 27 27 28 28 28 29 30 30 31 32 34 35 36 37 38 38 39 41 43 44 46 48 48 49 49 50 51 52 52 53
24 25 26 26 26 25 25 25 25 25 25 26 26 28 28 28 30 32 33 34 34 34 35 37 38 40 41 42 43 43 44 45 47 49 51 53 54 54 55 56 57 57 58
25 26 27 27 26 26 26 26 26 25 26 27 28 29 30 31 32 34 36 38 39 39 40 40 41 43 44 44 45 46 48 50 51 54 55 56 57 59 59 59 60 61 61
27 28 28 28 29 27 26 25 24 25 26 28 30 31 32 34 35 36 38 40 41 42 43 44 44 45 47 48 50 51 53 54 55 56 57 58 59 60 61 62 63 64 65
30 30 29 29 30 30 29 28 28 29 29 32 34 35 36 37 39 40 40 41 43 45 47 47 48 49 50 51 52 54 56 57 59 60 60 62 62 63 64 65 66 66 67
31 31 32 32 32 31 32 32 33 33 34 36 38 38 39 41 42 43 44 45 46 47 49 50 51 51 52 54 55 56 57 58 59 60 60 62 64 65 66 67 67 68 68
32 32 33 34 34 35 35 36 36 37 38 39 40 41 42 44 45 45 47 48 49 50 51 52 52 52 53 54 55 57 58 59 60 60 60 62 63 64 66 67 67 68 68
35 35 35 36 36 37 38 39 39 40 41 42 43 44 45 46 47 48 49 50 51 52 52 52 52 53 54 56 57 58 58 59 60 60 62 63 63 64 65 65 65 64 64
37 38 38 39 39 40 41 42 42 43 44 44 45 46 47 48 49 50 51 52 52 52 53 53 54 54 55 56 57 57 58 59 59 60 61 61 61 61 61 60 59 58 58
39 40 40 41 42 42 43 43 43 44 45 46 46 47 48 48 49 50 51 51 51 51 51 51 52 52 53 54 55 55 55 55 55 56 56 56 56 54 54 54 54 53 53
40 40 41 42 42 43 43 43 43 44 44 45 45 46 46 47 47 48 48 48 49 49 49 50 52 52 52 53 53 53 53 53 52 52 52 51 50 49 48 48 49 48 48
40 40 40 41 41 41 42 42 42 42 42 42 43 44 44 45 46 47 47 47 48 49 50 50 50 50 50 50 49 48 47 47 47 46 45 44 44 43 42 43 43 43 43
39 39 39 38 39 39 39 40 40 39 39 40 41 42 42 43 43 43 44 45 45 45 45 45 45 46 46 46 45 44 43 42 41 40 39 39 38 38 38 38 37 37 37
35 36 36 36 37 37 37 37 37 37 38 39 39 40 40 40 41 41 40 40 40 40 40 40 40 40 40 39 39 38 38 37 36 35 34 34 34 34 34 33 33 33 33
33 33 34 34 34 34 34 35 35 36 36 37 37 37 36 36 36 35 35 35 34 34 34 34 34 33 32 32 31 31 30 30 29 28 28 28 28 28 28 28 29 29 29
30 30 30 31 31 31 31 32 32 33 33 32 30 30 30 29 29 29 28 27 27 27 26 26 25 25 25 25 25 25 24 23 23 23 23 24 24 24 24 24 24 25 25
27 27 28 28 27 28 28 28 28 26 25 25 25 24 24 23 23 22 21 21 21 20 20 19 19 19 20 20 20 19 19 19 19 18 18 19 19 20 20 21 21 22 23
25 25 24 24 24 24 24 23 22 22 22 22 21 21 20 20 19 18 18 17 17 16 16 15 15 15 15 15 15 15 15 15 15 15 15 16 16 17 18 18 19 19 20
22 22 21 21 21 21 21 21 20 19 19 20 19 19 18 18 17 17 16 16 15 14 14 13 13 14 13 13 13 13 12 12 13 13 14 14 15 15 16 17 18 19 20
Wind_Direction
242 246 247 251 255 259 265 272 277 281 285 289 293 298 300 298 295 294 293 292 290 288 286 284 281 279 277 277 277 277 276 276 275 274 272 271 270 269 268 267 266 266 265
241 245 247 250 255 260 266 271 276 280 285 288 290 292 293 292 292 290 289 287 285 284 284 283 280 277 275 274 274 274 274 273 273 273 273 271 270 269 269 268 267 266 266
240 246 251 254 256 260 265 271 275 278 282 285 288 291 291 291 292 289 288 287 284 283 282 281 278 275 273 272 271 272 272 272 272 271 271 271 270 270 269 268 268 268 268
247 251 255 260 261 262 265 268 272 275 278 282 285 287 289 290 291 289 288 287 285 283 281 279 277 275 272 270 270 271 271 271 271 271 271 270 270 269 269 269 268 268 268
252 255 257 262 265 268 269 268 272 275 278 281 282 284 285 287 287 287 286 285 282 282 280 278 276 274 272 270 270 271 272 272 271 271 271 270 270 269 269 269 269 269 269
257 259 261 264 269 273 273 274 275 276 278 280 281 281 281 282 285 285 285 283 279 277 279 278 275 274 272 270 269 270 270 271 271 272 271 271 271 270 270 270 270 270 270
260 263 265 265 270 274 274 275 278 278 279 278 278 277 278 280 281 282 282 282 280 277 277 276 274 272 272 272 270 270 269 271 271 271 271 271 271 271 271 271 271 270 270
265 266 267 270 272 272 274 273 277 277 276 275 275 274 275 277 277 278 279 281 280 278 277 275 275 274 273 272 271 270 269 270 270 271 271 272 271 272 272 272 271 271 270
273 274 272 273 272 273 275 276 276 279 276 274 275 276 275 275 275 276 277 279 279 278 276 275 274 274 273 271 270 270 269 269 269 270 271 271 271 272 272 271 271 271 270
275 279 280 277 278 279 279 280 279 278 277 276 277 278 278 278 277 276 277 277 278 278 276 275 274 272 272 271 271 270 270 270 270 271 271 271 271 271 271 272 271 271 270
281 286 286 286 286 286 287 287 285 281 280 279 278 279 278 279 279 279 278 277 277 277 276 275 274 274 274 273 272 272 272 271 271 271 272 272 271 272 272 272 272 271 271
287 288 287 289 290 291 292 292 288 283 280 280 279 278 277 278 279 279 279 279 278 277 276 275 275 275 274 274 274 273 274 274 273 272 271 272 272 272 273 273 273 274 273
289 288 288 289 290 292 291 290 287 285 282 281 279 279 278 278 279 279 279 280 279 278 277 276 276 276 275 275 274 274 274 275 274 273 273 273 272 272 273 273 274 274 273
288 289 288 289 289 289 289 288 287 286 285 282 280 280 280 280 280 279 280 280 279 278 277 277 276 276 275 274 274 275 274 274 274 275 275 275 275 275 275 275 275 275 275
286 287 288 288 287 288 288 288 287 286 285 284 283 282 283 283 281 280 280 280 279 278 277 277 277 276 276 275 275 276 275 275 275 276 277 277 278 278 278 278 278 277 277
285 286 286 287 288 288 288 288 287 286 286 285 285 284 284 283 282 281 281 280 278 276 276 276 276 277 276 276 275 276 275 276 276 277 278 279 279 278 278 278 278 278 278
285 286 287 288 288 289 289 289 289 289 288 287 287 286 286 285 284 283 283 281 279 278 278 278 277 277 276 276 277 277 277 278 278 279 280 281 281 281 280 281 281 281 282
285 286 287 289 289 290 290 291 291 291 290 290 289 289 288 287 286 286 284 282 281 280 280 279 278 278 278 278 278 279 280 281 281 282 282 283 284 284 283 284 284 284 284
287 288 289 290 290 291 292 293 293 292 292 291 291 290 289 289 288 286 285 284 282 281 280 280 279 278 279 280 280 281 281 282 284 285 287 287 287 287 288 288 288 287 286
288 289 291 292 293 293 294 294 294 294 293 293 292 291 291 290 289 288 287 285 284 283 282 282 281 281 281 282 282 283 284 285 286 287 287 288 288 288 290 290 291 291 291
289 290 291 292 293 294 294 295 296 296 296 295 294 293 292 291 290 290 289 287 286 285 284 284 284 284 285 285 285 285 286 287 288 289 289 291 292 292 293 294 294 295 295
290 291 292 293 294 294 295 296 297 297 297 297 296 296 295 294 293 293 292 291 291 290 289 288 288 288 288 287 289 289 290 290 290 291 292 294 295 296 297 297 299 299 298
290 292 293 293 294 295 296 298 300 300 301 302 302 303 302 301 300 299 299 298 298 297 295 294 293 293 292 292 293 294 294 294 294 295 297 299 300 301 302 303 303 303 304
290 292 294 294 295 297 300 302 304 306 307 309 311 313 313 312 311 311 310 309 308 306 304 303 302 301 300 299 300 301 300 300 301 303 304 305 307 309 311 312 312 311 312
290 292 293 295 298 302 306 308 309 311 314 316 318 320 322 322 322 323 322 321 320 318 317 317 316 316 316 313 310 310 308 309 312 314 314 316 318 319 321 321 322 323 323
292 292 293 297 301 305 309 310 312 315 317 320 322 324 326 328 329 330 330 331 331 331 333 332 331 329 326 325 325 323 320 321 323 324 324 325 327 329 331 332 333 334 332
Height
5880 5881 5882 5882 5883 5883 5883 5883 5883 5882 5882 5881 5880 5879 5878 5877 5877 5876 5875 5874 5873 5872 5872 5871 5870 5869 5868 5867 5867 5866 5865 5865 5864 5863 5863 5862 5862 5861 5861 5861 5860 5860 5859
5877 5877 5878 5879 5879 5879 5880 5880 5879 5878 5878 5876 5876 5875 5874 5873 5872 5870 5869 5869 5867 5866 5866 5865 5864 5863 5863 5862 5861 5861 5860 5859 5859 5858 5857 5857 5856 5856 5856 5855 5855 5854 5854
5873 5873 5874 5875 5875 5875 5875 5875 5874 5874 5873 5872 5871 5870 5869 5867 5865 5864 5862 5861 5860 5859 5859 5858 5857 5856 5856 5855 5855 5854 5854 5853 5852 5852 5851 5850 5850 5849 5849 5848 5848 5847 5847
5868 5869 5869 5870 5870 5870 5870 5869 5869 5868 5867 5866 5865 5864 5862 5861 5859 5857 5856 5854 5853 5852 5852 5851 5850 5849 5848 5848 5848 5847 5846 5846 5845 5844 5844 5843 5842 5842 5841 5840 5840 5839 5839
5862 5863 5864 5864 5864 5864 5864 5864 5863 5862 5861 5860 5859 5857 5856 5854 5853 5851 5849 5848 5846 5845 5844 5843 5842 5842 5841 5840 5840 5839 5839 5838 5837 5836 5835 5835 5834 5833 5832 5831 5831 5830 5830
5857 5857 5857 5858 5858 5858 5857 5857 5857 5856 5855 5853 5852 5851 5849 5848 5846 5844 5842 5841 5839 5838 5837 5836 5835 5834 5834 5833 5832 5831 5830 5829 5828 5827 5826 5825 5824 5823 5822 5821 5821 5820 5819
5852 5851 5851 5852 5851 5851 5850 5850 5849 5848 5848 5846 5845 5844 5843 5841 5839 5837 5835 5834 5832 5831 5830 5829 5828 5827 5826 5825 5823 5822 5821 5820 5819 5817 5816 5814 5813 5812 5811 5810 5809 5808 5807
5846 5845 5845 5844 5844 5844 5843 5843 5842 5841 5840 5839 5838 5837 5836 5835 5832 5830 5828 5827 5825 5823 5822 5821 5819 5818 5817 5815 5814 5813 5811 5810 5808 5807 5805 5803 5801 5800 5799 5798 5796 5795 5794
5840 5839 5839 5838 5838 5837 5837 5836 5835 5834 5833 5832 5831 5830 5828 5827 5825 5823 5821 5819 5817 5815 5814 5812 5810 5809 5807 5805 5804 5802 5801 5799 5797 5795 5793 5791 5789 5787 5785 5784 5782 5781 5780
5833 5833 5832 5831 5831 5830 5829 5829 5828 5827 5826 5825 5824 5822 5821 5819 5817 5815 5813 5810 5808 5806 5804 5802 5800 5798 5796 5794 5792 5790 5789 5786 5784 5782 5779 5777 5774 5772 5770 5768 5767 5765 5764
5826 5826 5824 5823 5823 5822 5821 5820 5819 5819 5818 5817 5815 5813 5811 5809 5807 5806 5803 5801 5797 5795 5793 5791 5789 5787 5785 5782 5780 5778 5775 5773 5770 5768 5765 5762 5759 5757 5755 5753 5750 5748 5747
5819 5818 5817 5816 5815 5814 5813 5812 5811 5810 5809 5807 5806 5804 5802 5799 5797 5794 5792 5789 5786 5783 5781 5779 5776 5774 5772 5769 5766 5764 5761 5758 5756 5752 5749 5747 5744 5741 5738 5736 5733 5731 5729
5811 5810 5808 5808 5807 5805 5804 5803 5802 5801 5799 5797 5795 5793 5791 5788 5786 5783 5780 5777 5774 5771 5768 5765 5762 5760 5757 5754 5752 5749 5746 5743 5739 5736 5733 5730 5727 5724 5721 5718 5715 5712 5710
5803 5802 5801 5799 5798 5796 5795 5794 5792 5790 5788 5786 5784 5781 5779 5776 5773 5771 5768 5765 5761 5757 5754 5751 5748 5745 5742 5739 5736 5733 5730 5727 5723 5719 5716 5712 5709 5706 5702 5699 5696 5693 5691
5794 5793 5792 5790 5788 5787 5785 5783 5781 5779 5776 5774 5771 5768 5765 5762 5759 5756 5753 5750 5747 5743 5739 5736 5733 5730 5727 5724 5721 5718 5714 5711 5707 5703 5699 5695 5691 5688 5684 5681 5678 5675 5672
5785 5783 5782 5780 5778 5776 5774 5772 5769 5766 5764 5761 5758 5755 5752 5748 5745 5742 5738 5735 5732 5728 5725 5721 5718 5715 5712 5709 5705 5702 5699 5696 5691 5687 5683 5679 5675 5671 5667 5664 5661 5658 5655
5775 5773 5771 5769 5767 5765 5762 5760 5757 5754 5751 5748 5745 5741 5738 5734 5730 5727 5723 5719 5716 5713 5709 5705 5702 5699 5696 5693 5689 5686 5683 5679 5675 5671 5667 5663 5659 5656 5652 5649 5645 5642 5639
5765 5763 5760 5758 5756 5753 5750 5747 5744 5741 5738 5735 5731 5727 5724 5720 5716 5712 5708 5704 5701 5697 5694 5691 5687 5684 5681 5678 5674 5671 5667 5664 5660 5656 5652 5649 5645 5641 5638 5635 5631 5628 5625
5754 5752 5750 5747 5745 5742 5739 5736 5733 5729 5726 5722 5718 5714 5710 5706 5702 5698 5694 5690 5686 5683 5679 5676 5672 5669 5666 5663 5660 5656 5653 5650 5647 5643 5640 5636 5633 5629 5626 5623 5620 5616 5613
5744 5742 5739 5736 5734 5731 5728 5725 5721 5718 5714 5710 5706 5702 5697 5693 5689 5684 5680 5676 5672 5668 5664 5661 5658 5655 5652 5649 5647 5644 5641 5638 5635 5632 5629 5626 5623 5620 5616 5613 5610 5606 5603
5734 5732 5729 5727 5724 5721 5718 5715 5711 5707 5703 5698 5694 5689 5684 5680 5675 5671 5667 5662 5659 5655 5651 5648 5645 5642 5640 5637 5635 5633 5630 5627 5625 5623 5620 5617 5614 5611 5607 5604 5600 5597 5593
5726 5723 5721 5718 5715 5712 5708 5704 5701 5696 5692 5688 5683 5678 5673 5668 5664 5659 5655 5651 5647 5644 5640 5638 5635 5632 5630 5628 5626 5623 5621 5619 5616 5615 5612 5609 5606 5603 5599 5596 5592 5589 5585
5717 5715 5712 5709 5706 5703 5699 5695 5691 5687 5683 5678 5673 5668 5663 5659 5655 5650 5646 5642 5639 5635 5632 5629 5627 5625 5623 5621 5619 5617 5614 5612 5610 5608 5605 5602 5600 5596 5593 5590 5586 5582 5578
5710 5707 5704 5701 5698 5695 5691 5687 5684 5680 5675 5671 5666 5661 5657 5653 5648 5644 5640 5637 5633 5629 5626 5624 5622 5619 5617 5615 5613 5612 5609 5607 5605 5603 5600 5598 5595 5592 5588 5584 5581 5577 5573
5703 5700 5697 5694 5691 5688 5685 5681 5677 5674 5670 5666 5661 5657 5653 5649 5645 5641 5637 5633 5630 5626 5623 5620 5618 5616 5614 5611 5609 5608 5606 5604 5601 5599 5597 5594 5591 5588 5585 5581 5577 5572 5568
5696 5694 5691 5688 5686 5682 5679 5676 5672 5669 5665 5662 5658 5654 5650 5646 5642 5638 5634 5631 5627 5624 5621 5618 5616 5614 5612 5609 5607 5605 5603 5601 5599 5597 5594 5591 5588 5585 5582 5578 5573 5568 5564